Location: Briarwood
(39.0812°N, 76.8511°W)
Time: 22:27:21
(UTC+00:00)

SeaSat 1 - Pass Details

Date: 10 September 2024
Orbit: 739 x 742 km, 108.0° (Epoch: 06 October)

Event Time Altitude Azimuth Distance (km) Brightness Sun altitude
Rises 23:41:47 0° 16° (NNE) 3,190 5.6 -4.5°
Reaches altitude 10° 23:44:14 10° 7° (N) 2,263 5.0 -4.9°
Maximum altitude 23:48:36 33° 304° (NW) 1,234 4.4 -5.8°
Drops below altitude 10° 23:52:57 10° 241° (WSW) 2,250 5.8 -6.6°
Sets 23:55:23 0° 232° (SW) 3,170 6.3 -7.1°
